Home   Weather   Garland   Past weeks

Flag for USA Past Weather in Garland, Texas, USA — Yesterday and Last 2 Weeks

73 °F


Feels Like: 77 °F
Forecast: 55 / 78 °F
Wind: 8 mph from Southeast

Location: Mesquite Metro Airport

Current Time: Oct 23, 2016 at 6:58:25 PM

Latest Report: Oct 23, 2016 at 5:50 PM

Visibility: 10 mi

Pressure: 30.13 "Hg

Humidity: 47%

Dew Point: 52 °F

Location of GarlandLocation

Past Weather in Garland — Graph


Garland Temperature Yesterday

Maximum temperature yesterday: 77 °F (at 3:50 PM)
Minimum temperature yesterday: 44 °F (at 6:35 AM)
Average temperature yesterday: 55 °F

High & Low Weather Summary for the Past Weeks

High91 °F (Oct 18, 1:50 PM)100% (Oct 12, 6:50 AM)30.35 "Hg (Oct 12, 6:50 AM)
Low44 °F (Oct 22, 6:35 AM)26% (Oct 10, 3:50 PM)29.72 "Hg (Oct 17, 5:50 PM)
Average68 °F75%30.07 "Hg
* Reported Oct 8 3:50 PM — Oct 23 3:50 PM, Garland, Weather by CustomWeather, © 2016

Note: Actual official high and low records may vary slightly from our data, if they occured in-between our weather recording intervals... More about our weather records


Garland Weather History for the Previous 24 Hours

Scroll right to see more
Time TempWeatherWind HumidityBarometerVisibility
3:50 PM
Sun, Oct 23
77 °FSunny.7 mph44%30.12 "Hg10 mi
2:50 PM79 °FSunny.14 mph42%30.13 "Hg10 mi
1:50 PM77 °FSunny.15 mphN/AN/A10 mi
12:50 PM75 °FSunny.13 mphN/AN/A10 mi
11:50 AM70 °FSunny.12 mph64%30.19 "Hg10 mi
10:50 AM66 °FSunny.12 mph68%30.20 "Hg10 mi
9:50 AM63 °FSunny.12 mph77%30.20 "Hg10 mi
8:50 AM55 °FSunny.9 mph88%30.19 "Hg10 mi
7:50 AM52 °FSunny.7 mph94%30.18 "Hg10 mi
6:50 AM52 °FClear.7 mph94%30.17 "Hg10 mi
6:35 AM53 °FClear.7 mph89%30.16 "Hg10 mi
6:15 AM53 °FClear.6 mph88%30.15 "Hg10 mi
5:55 AM53 °FClear.6 mph86%30.15 "Hg10 mi
5:35 AM53 °FClear.7 mph85%30.15 "Hg10 mi
5:15 AM53 °FClear.7 mph84%30.14 "Hg10 mi
4:55 AM53 °FClear.6 mph83%30.14 "Hg10 mi
4:40 AM53 °FClear.6 mph82%30.14 "Hg10 mi
4:15 AM53 °FClear.6 mph80%30.13 "Hg10 mi
3:55 AM52 °FClear.7 mph81%30.14 "Hg10 mi
3:35 AM51 °FClear.6 mph80%30.14 "Hg10 mi
3:15 AM51 °FClear.6 mph81%30.14 "Hg10 mi
2:55 AM51 °FClear.6 mph80%30.14 "Hg7 mi
2:35 AM52 °FClear.5 mph80%30.15 "Hg7 mi
2:15 AM53 °FClear.No wind81%30.14 "Hg10 mi
1:55 AM52 °FClear.3 mph80%30.14 "Hg10 mi
1:35 AM52 °FClear.6 mph76%30.13 "Hg10 mi
1:15 AM52 °FClear.6 mph74%30.13 "Hg10 mi
12:55 AM52 °FClear.3 mph73%30.13 "Hg7 mi
12:35 AM52 °FClear.5 mph73%30.12 "Hg7 mi
12:15 AM52 °FClear.5 mph68%30.13 "Hg7 mi
11:55 PM
Sat, Oct 22
53 °FClear.3 mph74%30.13 "Hg7 mi
11:35 PM55 °FClear.No wind69%30.13 "Hg10 mi
11:15 PM54 °FClear.No wind68%30.13 "Hg10 mi
10:55 PM54 °FClear.3 mph68%30.13 "Hg7 mi
10:35 PM54 °FClear.No wind67%30.13 "Hg7 mi
10:15 PM56 °FClear.3 mph65%30.13 "Hg7 mi
9:55 PM57 °FClear.No wind63%30.12 "Hg10 mi
9:35 PM58 °FClear.3 mph60%30.12 "Hg10 mi
9:15 PM59 °FClear.3 mph59%30.12 "Hg10 mi
7:50 PM63 °FClear.6 mph49%30.10 "Hg10 mi
6:55 PM70 °FClear.6 mph35%30.09 "Hg10 mi
Weather by CustomWeather, © 2016

See weather overviewHow to use our weather pages